[[{"header":{"parameterUnit":"m.s-1","parameterCategory":1,"la1":30.2991,"la2":30.254,"lo1":-89.0895,"lo2":-89.0444,"dy":0.0017,"dx":0.0017,"nx":28,"ny":28,"refTime":"2024-12-20T09:00:00:Z","depth":0,"parameterNumber":2,"parameterNumberName":"U-component_of_WINDS"},"data":[0,0,0,0,0,0,0,0,0,0,0,0,0,0,0,0,0,0,0,0,0,0,0,0,0,0,0,0,0,0,0,0,0,0,0,0,0,0,0,0,0,0,0,0,0,0,0,0,0,0,0,0,0,0,0,0,0,0,2.0878,2.0878,0,2.0915,2.0916,2.0916,2.0891,2.089,2.0889,2.0888,2.0928,2.093,2.0932,0,0,0,0,0,0,0,0,0,0,0,0,0,2.0789,2.0791,2.0878,2.0878,2.0879,2.0915,2.0916,2.0916,2.0891,2.089,2.0889,2.0887,2.0927,2.093,2.0932,0,0,0,0,0,0,0,0,0,0,0,0,0,2.0827,2.0791,2.0878,2.0871,2.0871,2.0915,2.0916,2.0916,2.0892,2.089,2.0888,2.0887,2.0926,2.0929,2.0933,2.0986,0,0,2.0942,2.0944,0,0,0,0,0,0,0,0,2.0825,2.083,2.0872,2.0871,2.0871,2.0897,2.0899,2.094,2.0892,2.0884,2.0888,2.0886,2.0919,2.0923,2.0933,2.0988,2.099,2.0943,2.0945,2.0946,2.0947,0,0,0,0,0,0,0,2.0822,2.0829,2.0893,2.0872,2.0872,2.0867,2.0871,2.0906,2.0911,2.0884,2.0883,2.0887,2.0919,2.093,2.0934,2.0991,2.0943,2.0945,2.0947,2.0949,2.1094,2.1096,0,0,0,0,0,0,2.082,2.0826,2.0892,2.0894,2.0843,2.087,2.0874,2.089,2.091,2.0911,2.0889,2.0886,2.0926,2.0931,2.0936,2.1002,2.0946,2.0949,2.0951,2.1092,2.1094,2.1096,0,0,0,0,0,0,2.0818,2.0826,2.089,2.086,2.0868,2.0873,2.0892,2.0892,2.0904,2.0913,2.0914,2.09,2.0925,2.0931,2.0974,2.1003,2.095,2.0953,2.109,2.1093,2.1095,2.1133,0,0,0,0,0,0,2.0816,2.0825,2.0845,2.086,2.0869,2.0927,2.0894,2.0894,2.0909,2.0906,2.0924,2.0925,2.0924,2.097,2.0978,2.1006,2.0956,2.1087,2.1091,2.1094,2.1129,2.1137,2.1143,0,0,0,0,0,2.0812,2.0854,2.0846,2.0854,2.0894,2.0929,2.0934,2.0931,2.0911,2.0932,2.0939,2.0925,2.0998,2.0974,2.0983,2.1013,2.1085,2.109,2.1094,2.1126,2.1135,2.1143,0,0,0,0,0,0,2.0842,2.0856,2.0847,2.0895,2.0911,2.0925,2.095,2.094,2.0963,2.0959,2.0955,2.0959,2.1005,2.1013,2.0986,2.1067,2.1039,2.1045,2.106,2.1069,2.1076,2.1073,2.0958,0,0,0,0,0,2.0854,2.0881,2.0891,2.0932,2.0941,2.0944,2.096,2.0956,2.0973,2.098,2.0989,2.1007,2.1034,2.1052,2.1077,2.113,2.1135,2.1155,2.1162,2.1168,2.1174,2.1205,2.1214,2.1111,2.1111,2.1111,0,0,2.0879,2.089,2.0907,2.0939,2.0951,2.098,2.095,2.0982,2.1004,2.0984,2.1026,2.1034,2.1053,2.1102,2.1125,2.1111,2.1203,2.1173,2.1178,2.1181,2.121,2.122,2.1229,2.1114,2.1113,2.1113,0,0,2.094,2.095,2.0986,2.0999,2.1018,2.102,2.1029,2.1045,2.1049,2.1091,2.1078,2.1104,2.115,2.1165,2.1179,2.1248,2.1237,2.1256,2.1293,2.1323,2.1331,2.1339,2.1365,2.1374,2.1262,2.1262,2.1262,0,2.0969,2.1011,2.1006,2.1039,2.1055,2.1038,2.1076,2.1089,2.1115,2.1127,2.1111,2.117,2.1181,2.1235,2.1252,2.1263,2.1274,2.1254,2.133,2.1338,2.1344,2.1369,2.1379,2.1264,2.1264,2.1264,2.1263,0,2.1047,2.1077,2.1104,2.113,2.1148,2.1183,2.1185,2.1204,2.1199,2.1204,2.1248,2.1261,2.129,2.1302,2.1297,2.1356,2.1347,2.1331,2.1302,2.1357,2.138,2.139,2.1267,2.1267,2.1266,2.1265,0,0,2.1127,2.1151,2.1161,2.1174,2.1194,2.1217,2.1252,2.128,2.1298,2.1317,2.1347,2.1388,2.1374,2.1389,2.1386,2.1412,2.1468,2.1393,2.1394,2.1408,2.1536,2.1549,2.156,2.1461,2.1463,2.1464,2.1535,0,2.1191,2.1251,2.1249,2.1306,2.1335,2.1321,2.1352,2.1368,2.1374,2.14,2.1406,2.1435,2.1413,2.1423,2.1448,2.1456,2.1494,2.1451,2.1491,2.1492,2.1488,2.1571,2.1585,2.1651,2.1543,2.1545,2.1546,0,2.1272,2.1295,2.1355,2.1373,2.1385,2.1412,2.1439,2.1463,2.1482,2.1485,2.1503,2.1496,2.1533,2.1504,2.1556,2.1527,2.1543,2.155,2.1552,2.1557,2.1523,2.158,2.1671,2.1682,2.156,2.1559,2.1558,0,2.1327,2.1372,2.1414,2.1425,2.1446,2.1467,2.1477,2.1494,2.1512,2.1535,2.1547,2.1574,2.159,2.1612,2.1613,2.1591,2.1667,2.1636,2.1671,2.1671,2.1688,2.1687,2.1785,2.1697,2.1697,2.1696,2.1696,0,2.1399,2.1437,2.1439,2.1466,2.1508,2.1506,2.1548,2.1556,2.1572,2.1601,2.159,2.1617,2.1617,2.1645,2.1647,2.1691,2.1698,2.1702,2.1702,2.1704,2.1703,2.1715,2.1711,2.1699,2.1698,2.1698,2.1697,0,2.1467,2.147,2.1516,2.1533,2.1538,2.1569,2.1584,2.1609,2.1614,2.1651,2.1659,2.1667,2.17,2.1703,2.1741,2.1743,2.1797,2.1791,2.179,2.179,2.1825,2.1822,2.1934,2.195,2.185,2.1851,2.1852,0,2.1514,2.1543,2.1563,2.1581,2.1592,2.1621,2.164,2.1638,2.1658,2.1683,2.1706,2.1738,2.1763,2.1817,2.1827,2.1856,2.1852,2.189,2.1857,2.1858,2.1855,2.1854,2.1857,2.1896,2.1898,2.1898,2.1899,0,2.1596,2.1596,2.1622,2.165,2.1672,2.1693,2.1714,2.1729,2.1731,2.1754,2.1787,2.1807,2.1846,2.1879,2.1908,2.1919,2.1911,2.1909,2.1919,2.1922,2.1921,2.1923,2.1809,2.1907,2.1906,2.1906,2.1905,2.1905,2.1656,2.1682,2.17,2.173,2.1746,2.1765,2.1791,2.1799,2.1826,2.1858,2.1856,2.1894,2.1914,2.1952,2.1966,2.1996,2.1984,2.1998,2.2002,2.2005,2.201,2.1915,2.2001,2.2001,2.2001,2.2001,2.2001,0,2.1739,2.1751,2.1778,2.1807,2.1831,2.182,2.1842,2.1864,2.1896,2.1916,2.1941,2.1981,2.2012,2.2025,2.2056,2.2078,2.2075,2.2087,2.2086,2.2089,2.2018,2.2007,2.2089,2.2089,2.2089,2.2089,2.2089,2.2089,2.1785,2.1829,2.1832,2.1884,2.1895,2.1932,2.1946,2.1964,2.198,2.2024,2.205,2.2058,2.2076,2.2108,2.2138,2.2141,2.2153,2.2167,2.2169,2.2102,2.2094,2.2085,2.2075,2.217,2.217,2.2237,2.2238,2.2238]},{"header":{"parameterUnit":"m.s-1","parameterCategory":1,"la1":30.2991,"la2":30.254,"lo1":-89.0895,"lo2":-89.0444,"dy":0.0017,"dx":0.0017,"nx":28,"ny":28,"refTime":"2024-12-20T09:00:00:Z","depth":0,"parameterNumber":3,"parameterNumberName":"V-component_of_WINDS"},"data":[0,0,0,0,0,0,0,0,0,0,0,0,0,0,0,0,0,0,0,0,0,0,0,0,0,0,0,0,0,0,0,0,0,0,0,0,0,0,0,0,0,0,0,0,0,0,0,0,0,0,0,0,0,0,0,0,0,0,-3.1607,-3.1607,0,-3.1572,-3.1572,-3.1571,-3.1537,-3.1537,-3.1536,-3.1536,-3.1497,-3.1496,-3.1495,0,0,0,0,0,0,0,0,0,0,0,0,0,-3.1645,-3.1644,-3.1607,-3.1607,-3.1607,-3.1572,-3.1572,-3.1571,-3.1537,-3.1537,-3.1536,-3.1536,-3.1497,-3.1496,-3.1495,0,0,0,0,0,0,0,0,0,0,0,0,0,-3.1621,-3.1644,-3.1608,-3.1586,-3.1583,-3.1572,-3.1572,-3.1571,-3.1537,-3.1537,-3.1536,-3.1535,-3.1497,-3.1496,-3.1495,-3.1502,0,0,-3.1492,-3.1492,0,0,0,0,0,0,0,0,-3.1622,-3.1619,-3.1589,-3.1587,-3.1584,-3.1558,-3.157,-3.1548,-3.1538,-3.1555,-3.1536,-3.1535,-3.1518,-3.1515,-3.1509,-3.15,-3.1498,-3.1492,-3.1492,-3.1491,-3.1491,0,0,0,0,0,0,0,-3.1624,-3.1621,-3.1593,-3.1589,-3.1586,-3.1577,-3.1573,-3.1566,-3.154,-3.1553,-3.1551,-3.1547,-3.1516,-3.1511,-3.1508,-3.1498,-3.1492,-3.1491,-3.1491,-3.149,-3.1495,-3.1496,0,0,0,0,0,0,-3.1629,-3.1622,-3.1594,-3.1592,-3.1602,-3.1577,-3.1572,-3.1567,-3.154,-3.1535,-3.1548,-3.1546,-3.1512,-3.1509,-3.1507,-3.1515,-3.1491,-3.149,-3.149,-3.1495,-3.1495,-3.1496,0,0,0,0,0,0,-3.163,-3.1627,-3.1596,-3.1607,-3.1602,-3.1577,-3.1572,-3.1567,-3.1561,-3.1536,-3.1531,-3.1547,-3.1512,-3.1508,-3.1504,-3.1513,-3.149,-3.1489,-3.1494,-3.1495,-3.1496,-3.153,0,0,0,0,0,0,-3.1631,-3.1627,-3.163,-3.1607,-3.1602,-3.1594,-3.1572,-3.1567,-3.156,-3.1557,-3.1534,-3.1529,-3.1511,-3.1506,-3.1503,-3.1511,-3.1488,-3.1493,-3.1494,-3.1496,-3.1528,-3.1533,-3.1536,0,0,0,0,0,-3.1633,-3.164,-3.163,-3.1627,-3.1604,-3.1595,-3.1592,-3.1572,-3.1561,-3.1563,-3.1547,-3.153,-3.1513,-3.1506,-3.1503,-3.1511,-3.1492,-3.1494,-3.1495,-3.1527,-3.1532,-3.1536,0,0,0,0,0,0,-3.1662,-3.1636,-3.1625,-3.1625,-3.1613,-3.1589,-3.1591,-3.1577,-3.1566,-3.1564,-3.1538,-3.1533,-3.1533,-3.1521,-3.1514,-3.1517,-3.15,-3.1501,-3.1525,-3.153,-3.1533,-3.1537,-3.1487,0,0,0,0,0,-3.1669,-3.1664,-3.1641,-3.1643,-3.1638,-3.1616,-3.1611,-3.1597,-3.1583,-3.1577,-3.156,-3.1547,-3.1538,-3.1533,-3.1524,-3.1526,-3.1522,-3.153,-3.1534,-3.1538,-3.1539,-3.1542,-3.1547,-3.1502,-3.1502,-3.1501,0,0,-3.1682,-3.1668,-3.1666,-3.1649,-3.1638,-3.1634,-3.1612,-3.1607,-3.1604,-3.1576,-3.1572,-3.156,-3.1543,-3.1543,-3.1542,-3.1533,-3.1551,-3.154,-3.1543,-3.1542,-3.1544,-3.1549,-3.1553,-3.1503,-3.1502,-3.1502,0,0,-3.1705,-3.1693,-3.1695,-3.1685,-3.1669,-3.1654,-3.1655,-3.1634,-3.1626,-3.1622,-3.1601,-3.1597,-3.1582,-3.1572,-3.1565,-3.1587,-3.1571,-3.1584,-3.1605,-3.1608,-3.1612,-3.1615,-3.1625,-3.1629,-3.1586,-3.1586,-3.1586,0,-3.1723,-3.1717,-3.1697,-3.1695,-3.1689,-3.1665,-3.1668,-3.1658,-3.164,-3.1636,-3.1626,-3.161,-3.1596,-3.1595,-3.1601,-3.1595,-3.1596,-3.1587,-3.1613,-3.1616,-3.1619,-3.1628,-3.1631,-3.1588,-3.1588,-3.1587,-3.1587,0,-3.1741,-3.1738,-3.1741,-3.1726,-3.172,-3.172,-3.1701,-3.1697,-3.1684,-3.1671,-3.1669,-3.1652,-3.1641,-3.1639,-3.1625,-3.1637,-3.1632,-3.1618,-3.1601,-3.1625,-3.1634,-3.1637,-3.159,-3.159,-3.1589,-3.1589,0,0,-3.178,-3.1757,-3.1758,-3.1753,-3.1735,-3.1731,-3.1731,-3.1721,-3.172,-3.1708,-3.1708,-3.1698,-3.1686,-3.1678,-3.1663,-3.1666,-3.1687,-3.1651,-3.1651,-3.166,-3.1702,-3.1714,-3.1718,-3.1677,-3.1677,-3.1678,-3.1704,0,-3.1801,-3.18,-3.1784,-3.1788,-3.1785,-3.1764,-3.1764,-3.1753,-3.1741,-3.1737,-3.1723,-3.1718,-3.1701,-3.1697,-3.1699,-3.1684,-3.1696,-3.1682,-3.1677,-3.1677,-3.1684,-3.1722,-3.1734,-3.1759,-3.1707,-3.1707,-3.1708,0,-3.1825,-3.1818,-3.1822,-3.1807,-3.1805,-3.1806,-3.1797,-3.1793,-3.1781,-3.1772,-3.1765,-3.1749,-3.1748,-3.1732,-3.1731,-3.1722,-3.1719,-3.1713,-3.1713,-3.1713,-3.1695,-3.1724,-3.1766,-3.1771,-3.1712,-3.1712,-3.1712,0,-3.1855,-3.1846,-3.1849,-3.1844,-3.1826,-3.1827,-3.1819,-3.1807,-3.1803,-3.1795,-3.1793,-3.1784,-3.178,-3.1774,-3.1756,-3.1745,-3.1758,-3.174,-3.1752,-3.1753,-3.1756,-3.1756,-3.18,-3.1752,-3.1752,-3.1752,-3.1752,0,-3.1881,-3.1885,-3.1863,-3.1864,-3.1869,-3.185,-3.1854,-3.1844,-3.1834,-3.1834,-3.1813,-3.1813,-3.179,-3.1787,-3.1773,-3.1776,-3.1774,-3.1768,-3.1764,-3.177,-3.1771,-3.1769,-3.1767,-3.1753,-3.1753,-3.1753,-3.1752,0,-3.1915,-3.1901,-3.1902,-3.1886,-3.1882,-3.1887,-3.1873,-3.1874,-3.1862,-3.1862,-3.186,-3.1841,-3.1838,-3.182,-3.1811,-3.1802,-3.181,-3.1802,-3.1815,-3.1813,-3.1827,-3.1827,-3.1872,-3.1878,-3.1825,-3.1825,-3.1826,0,-3.1933,-3.1936,-3.1922,-3.1921,-3.1915,-3.1913,-3.191,-3.1892,-3.189,-3.1878,-3.1881,-3.1876,-3.1871,-3.1866,-3.1852,-3.1846,-3.1838,-3.1855,-3.1837,-3.1844,-3.1841,-3.1842,-3.1843,-3.1859,-3.1859,-3.186,-3.186,0,-3.1967,-3.1961,-3.1958,-3.1953,-3.1951,-3.1946,-3.1939,-3.194,-3.192,-3.1918,-3.1915,-3.1912,-3.1905,-3.1901,-3.1893,-3.1885,-3.187,-3.1866,-3.1869,-3.1876,-3.1884,-3.1882,-3.1827,-3.1865,-3.1865,-3.1864,-3.1864,-3.1864,-3.1995,-3.1998,-3.199,-3.1988,-3.1982,-3.1977,-3.1978,-3.1968,-3.1966,-3.196,-3.1949,-3.1948,-3.1938,-3.1927,-3.192,-3.1919,-3.1911,-3.1914,-3.1915,-3.1917,-3.1921,-3.1884,-3.1917,-3.1917,-3.1917,-3.1917,-3.1917,0,-3.203,-3.2024,-3.2023,-3.2016,-3.2015,-3.2003,-3.1996,-3.1996,-3.1996,-3.1989,-3.1986,-3.1984,-3.1981,-3.1967,-3.1962,-3.1965,-3.1958,-3.1964,-3.1965,-3.1964,-3.1928,-3.1927,-3.197,-3.197,-3.197,-3.197,-3.197,-3.197,-3.2048,-3.2053,-3.2046,-3.2049,-3.2043,-3.2044,-3.2041,-3.2037,-3.2032,-3.2031,-3.2029,-3.2021,-3.2012,-3.2007,-3.2004,-3.2,-3.2,-3.2009,-3.2003,-3.1971,-3.1965,-3.1961,-3.196,-3.2009,-3.2009,-3.2039,-3.2039,-3.2039]}]]